Location: Kellogg
(38.0159°N, 90.0546°W)
Time: 08:55:39
(UTC+00:00)

Altair - Pass Details

Date: 19 September 2024
Orbit: 1501 x 1682 km, 47.2° (Epoch: 07 October)

Event Time Altitude Azimuth Distance (km) Brightness Sun altitude
Rises 16:15:38 0° 289° (WNW) 4,929 9.8 46.8°
Reaches altitude 10° 16:20:52 10° 267° (W) 3,917 9.5 47.4°
Maximum altitude 16:25:31 14° 239° (WSW) 3,553 9.6 47.9°
Drops below altitude 10° 16:30:06 10° 210° (SSW) 3,856 10.0 48.4°
Sets 16:35:15 0° 188° (S) 4,799 10.6 48.9°
